WB7CYS Weather Reports


Display with metric or nautical units.
time (UTC)temp
F
wind
direction
speed
MPH
gust
MPH
rain 1hr
in
rain 24hr
in
rain mn
in
humidity
%
barometer
mb
20260508073010 56 104 5.0 7.0 0.00 0.00 0.00 36 1012.9
20260508071519 56 97 5.0 7.0 0.00 0.00 0.00 45 1012.8
20260508070005 57 99 4.0 7.0 0.00 0.00 0.00 41 1012.6
20260508064509 56 91 3.0 6.0 0.00 0.00 0.00 45 1012.5
20260508063012 57 98 3.0 5.0 0.00 0.00 0.00 45 1012.5
20260508061505 56 84 5.0 6.0 0.00 0.00 0.00 47 1012.4
20260508060004 57 87 5.0 7.0 0.00 0.00 0.00 44 1012.4
20260508054506 56 89 5.0 9.0 0.00 0.00 0.00 51 1012.3
20260508053005 56 83 5.0 7.0 0.00 0.00 0.00 49 1012.1
20260508051501 59 96 2.0 4.0 0.00 0.00 0.00 44 1011.8
20260508044601 60 85 2.0 4.0 0.00 0.00 0.00 43 1011.6
20260508043103 58 96 3.0 5.0 0.00 0.00 0.00 48 1011.5
20260508041559 60 94 5.0 7.0 0.00 0.00 0.00 45 1011.5
20260508034559 61 90 5.0 7.0 0.00 0.00 0.00 42 1011.2
20260508033056 61 106 5.0 6.0 0.00 0.00 0.00 46 1011.3
20260508031558 63 91 6.0 7.0 0.00 0.00 0.00 40 1011.1
20260508030058 64 91 5.0 7.0 0.00 0.00 0.00 40 1011.0
20260508024555 65 101 6.0 7.0 0.00 0.00 0.00 37 1010.9
20260508023055 67 323 2.0 7.0 0.00 0.00 0.00 33 1010.7
20260508021556 69 304 4.0 7.0 0.00 0.00 0.00 28 1010.7
20260508014556 72 293 8.0 11.0 0.00 0.00 0.00 23 1010.6
20260508013051 73 295 9.0 11.0 0.00 0.00 0.00 26 1010.7
20260508011551 73 284 7.0 11.0 0.00 0.00 0.00 24 1010.7
20260508010049 74 269 9.0 14.0 0.00 0.00 0.00 19 1010.7
20260508004548 73 247 9.0 13.0 0.00 0.00 0.00 21 1010.9
20260508003046 73 260 6.0 10.0 0.00 0.00 0.00 21 1010.9
20260508001543 74 271 7.0 11.0 0.00 0.00 0.00 19 1011.1
20260508000047 74 243 7.0 14.0 0.00 0.00 0.00 22 1011.0
20260507234540 73 280 7.0 12.0 0.00 0.00 0.00 22 1011.1
20260507233043 73 219 4.0 11.0 0.00 0.00 0.00 24 1011.2
20260507231537 73 290 9.0 16.0 0.00 0.00 0.00 22 1011.4
20260507230034 73 283 7.0 12.0 0.00 0.00 0.00 24 1011.5
20260507224539 73 165 6.0 9.0 0.00 0.00 0.00 23 1011.7
20260507223027 72 280 6.0 12.0 0.00 0.00 0.00 25 1011.9
20260507221534 71 257 6.0 13.0 0.00 0.00 0.00 28 1012.2
20260507220022 72 214 5.0 9.0 0.00 0.00 0.00 27 1012.3
20260507214520 71 231 8.0 14.0 0.00 0.00 0.00 28 1012.5
20260507213017 71 290 8.0 12.0 0.00 0.00 0.00 30 1012.6
20260507211521 70 180 5.0 15.0 0.00 0.00 0.00 30 1012.8
20260507210012 69 281 5.0 12.0 0.00 0.00 0.00 29 1013.0
20260507204511 69 298 10.0 17.0 0.00 0.00 0.00 29 1013.2
20260507203010 69 143 3.0 12.0 0.00 0.00 0.00 35 1013.3
20260507201506 68 277 4.0 12.0 0.00 0.00 0.00 34 1013.5
20260507200003 67 228 3.0 13.0 0.00 0.00 0.00 37 1013.6
20260507194502 67 285 4.0 11.0 0.00 0.00 0.00 38 1013.7
20260507193101 66 273 3.0 14.0 0.00 0.00 0.00 40 1013.8
20260507191603 66 273 8.0 11.0 0.00 0.00 0.00 40 1013.8
20260507190104 66 219 5.0 10.0 0.00 0.00 0.00 41 1014.0
20260507184600 65 219 8.0 13.0 0.00 0.00 0.00 40 1014.1
20260507183053 65 285 5.0 8.0 0.00 0.00 0.00 42 1014.2
20260507181552 65 263 5.0 11.0 0.00 0.00 0.00 48 1014.2
20260507180051 64 270 3.0 8.0 0.00 0.00 0.00 49 1014.2
20260507174649 64 142 2.0 6.0 0.00 0.00 0.00 51 1014.4
20260507173046 64 191 5.0 8.0 0.00 0.00 0.00 52 1014.3
20260507171543 62 210 2.0 7.0 0.00 0.00 0.00 54 1014.5
20260507170040 62 201 3.0 8.0 0.00 0.00 0.00 56 1014.5
20260507164550 61 195 1.0 8.0 0.00 0.00 0.00 58 1014.6
20260507163037 61 225 3.0 6.0 0.00 0.00 0.00 60 1014.5
20260507161538 59 257 5.0 10.0 0.00 0.00 0.00 62 1014.7
20260507160036 58 309 4.0 6.0 0.00 0.00 0.00 64 1014.8
20260507154539 57 211 1.0 6.0 0.00 0.00 0.00 65 1014.6
20260507153035 57 127 0.0 4.0 0.00 0.00 0.00 66 1014.7
20260507151534 54 103 3.0 6.0 0.00 0.00 0.00 71 1014.7
20260507150033 51 82 5.0 9.0 0.00 0.00 0.00 75 1014.7
20260507144533 49 109 6.0 8.0 0.00 0.00 0.00 78 1014.5
20260507143034 49 145 2.0 4.0 0.00 0.00 0.00 77 1014.5
20260507141527 50 83 0.0 2.0 0.00 0.00 0.00 75 1014.3
20260507140027 49 84 1.0 5.0 0.00 0.00 0.00 75 1014.0
20260507134527 50 95 2.0 6.0 0.00 0.00 0.00 74 1013.9
20260507133024 49 84 5.0 8.0 0.00 0.00 0.00 76 1013.6
20260507131517 0 0.0 0.0 0.00 0.00 0.00 1013.5
20260507130013 0 0.0 0.0 0.00 0.00 0.00 1013.5
20260507124511 0 0.0 0.0 0.00 0.00 0.00 1013.6
20260507123007 0 0.0 0.0 0.00 0.00 0.00 1013.5
20260507121621 0 0.0 0.0 0.00 0.00 0.00 1013.5
20260507120100 0 0.0 0.0 0.00 0.00 0.00 1013.5
20260507114633 0 0.0 0.0 0.00 0.00 0.00 1013.6
20260507113047 0 0.0 0.0 0.00 0.00 0.00 1013.6
20260507111547 0 0.0 0.0 0.00 0.00 0.00 1013.6
20260507110040 0 0.0 0.0 0.00 0.00 0.00 1013.6
20260507104536 0 0.0 0.0 0.00 0.00 0.00 1013.5
20260507103031 0 0.0 0.0 0.00 0.00 0.00 1013.5
20260507101528 0 0.0 0.0 0.00 0.00 0.00 1013.7
20260507100023 53 51 5.0 6.0 0.00 0.00 0.00 66 1013.8
20260507094521 52 87 4.0 5.0 0.00 0.00 0.00 67 1013.7
20260507093019 53 94 4.0 6.0 0.00 0.00 0.00 64 1013.6
20260507091522 56 323 2.0 3.0 0.00 0.00 0.00 57 1013.4
20260507090022 57 61 0.0 3.0 0.00 0.00 0.00 54 1013.5
20260507084513 54 65 2.0 7.0 0.00 0.00 0.00 61 1013.5
20260507083010 57 87 1.0 2.0 0.00 0.00 0.00 55 1013.3
20260507081507 57 88 2.0 4.0 0.00 0.00 0.00 57 1013.3
20260507080005 59 96 2.0 4.0 0.00 0.00 0.00 52 1013.0
20260507074505 57 85 4.0 6.0 0.00 0.00 0.00 56 1013.1